Winnemucca, NV

8:11 AM PDT on July 24, 2017 (GMT -0700)
Winnemucca Municipal

Weather History for KWMC - March, 2012

Change the Weather History Date:

Saturday, March 17, 2012

  Actual Average Record
Temperature  
Mean Temperature 37 °F 41 °F  
Max Temperature 42 °F 56 °F 79 °F (2007)
Min Temperature 32 °F 27 °F 9 °F (1971)
Degree Days  
Heating Degree Days 28 24  
Month to date heating degree days 432 425  
Since 1 July heating degree days 5070 5014  
Cooling Degree Days 0 0  
Month to date cooling degree days 0 0  
Year to date cooling degree days 0 0  
Moisture  
Dew Point 31 °F    
Average Humidity 77    
Maximum Humidity 100    
Minimum Humidity 54    
Precipitation  
Precipitation 0.34 in 0.03 in 0.46 in (1899)
Month to date precipitation 0.50 0.45  
Year to date precipitation 1.79 1.98  
Snow  
Snow 0.50 in 0.10 in 5.70 in (1933)
Month to date snowfall 1.9 1.9  
Since 1 July snowfall 18.8 17.9  
Snow Depth T in    
Sea Level Pressure  
Sea Level Pressure 29.45 in    
Wind  
Wind Speed 11 mph (NW)    
Max Wind Speed 24 mph    
Max Gust Speed 32 mph    
Visibility 7 miles    
Events Rain , Snow    
T = Trace of Precipitation, MM = Missing Value Source: NWS Daily Summary

Daily Weather History Graph

Daily Weather History Graph

Search for Another Location

Airport or City:

Trip Planner

Search our weather history database for the weather conditions in past years. The results will help you decide how hot, cold, wet, or windy it might be!

Date:

Astronomy

Mar. 17, 2012 Rise Set
Actual Time 6:58 AM PDT 7:00 PM PDT
Civil Twilight 6:31 AM PDT 7:28 PM PDT
Nautical Twilight 5:59 AM PDT 8:00 PM PDT
Astronomical Twilight 5:26 AM PDT 8:32 PM PDT
Moon 4:05 AM PDT (3/17) 2:27 PM PDT (3/17)
Length of Visible Light 12h 56m
Length of Day
12h 02m
Waning Crescent, 22% of the Moon is Illuminated
Mar 17
Waning Crescent
Mar 22
New
Mar 30
First Quarter
Apr 6
Full
Apr 13
Last Quarter

Hourly Weather History & Observations

Time (PDT) Temp. Windchill Dew Point Humidity Pressure Visibility Wind Dir Wind Speed Gust Speed Precip Events Conditions
12:56 AM 41.0 °F 35.2 °F 37.0 °F 86% 29.49 in 10.0 mi WSW 9.2 mph - 0.00 in Rain Light Rain
1:53 AM 39.2 °F 33.6 °F 37.4 °F 93% 29.53 in 8.0 mi WSW 8.1 mph - 0.05 in Rain Light Rain
1:56 AM 39.0 °F 32.8 °F 37.0 °F 93% 29.48 in 7.0 mi WSW 9.2 mph - 0.06 in Rain Light Rain
2:56 AM 39.0 °F 33.4 °F 36.0 °F 89% 29.47 in 10.0 mi SSW 8.1 mph - 0.08 in Rain Light Rain
3:31 AM 33.8 °F 24.8 °F 30.2 °F 87% 29.53 in 1.8 mi West 12.7 mph 25.3 mph 0.03 in Snow Light Snow
3:43 AM 32.0 °F 22.5 °F 32.0 °F 100% 29.53 in 3.0 mi West 12.7 mph - 0.05 in Snow Light Snow
3:56 AM 32.0 °F 21.2 °F 32.0 °F 100% 29.52 in 3.0 mi West 16.1 mph 24.2 mph 0.06 in Snow Light Snow
4:05 AM 32.0 °F 22.1 °F 32.0 °F 100% 29.53 in 2.5 mi West 13.8 mph 24.2 mph 0.02 in Snow Light Snow
4:22 AM 32.0 °F 23.6 °F 32.0 °F 100% 29.53 in 1.8 mi WSW 10.4 mph - 0.06 in Snow Light Snow
4:32 AM 33.8 °F 25.3 °F 32.0 °F 93% 29.52 in 3.0 mi WSW 11.5 mph - 0.07 in Snow Light Snow
4:41 AM 33.8 °F 22.8 °F 32.0 °F 93% 29.51 in 9.0 mi SW 18.4 mph 28.8 mph 0.07 in   Overcast
4:51 AM 35.6 °F 25.5 °F 28.4 °F 75% 29.49 in 10.0 mi SW 17.3 mph 32.2 mph 0.07 in   Overcast
4:56 AM 36.0 °F 26.0 °F 28.9 °F 76% 29.47 in 10.0 mi SSW 17.3 mph 27.6 mph 0.07 in   Overcast
5:56 AM 35.1 °F 27.9 °F 30.9 °F 85% 29.48 in 10.0 mi WSW 9.2 mph - N/A   Overcast
6:56 AM 34.0 °F 25.0 °F 30.9 °F 89% 29.51 in 10.0 mi WSW 12.7 mph 17.3 mph N/A   Overcast
7:12 AM 33.8 °F 25.3 °F 30.2 °F 87% 29.53 in 10.0 mi WSW 11.5 mph - N/A   Overcast
7:31 AM - - - N/A% - 0.7 mi West 8.1 mph - N/A   Unknown
7:56 AM 33.1 °F 22.6 °F 28.0 °F 82% 29.53 in 10.0 mi West 16.1 mph - 0.00 in   Overcast
8:56 AM 35.1 °F 31.0 °F 28.0 °F 76% 29.52 in 10.0 mi WSW 4.6 mph - N/A   Overcast
9:56 AM 36.0 °F 33.3 °F 27.0 °F 70% 29.52 in 10.0 mi WNW 3.5 mph - N/A   Overcast
10:56 AM 36.0 °F 33.3 °F 28.0 °F 73% 29.53 in 10.0 mi WSW 3.5 mph - N/A   Mostly Cloudy
11:56 AM 37.9 °F 35.5 °F 26.1 °F 62% 29.49 in 10.0 mi NNW 3.5 mph - N/A   Overcast
12:56 PM 39.0 °F 35.7 °F 26.1 °F 60% 29.48 in 10.0 mi NNW 4.6 mph - N/A   Overcast
1:56 PM 39.0 °F 35.7 °F 25.0 °F 57% 29.46 in 10.0 mi NNE 4.6 mph - N/A   Overcast
2:56 PM 39.9 °F 34.5 °F 24.1 °F 53% 29.44 in 10.0 mi NE 8.1 mph - N/A   Mostly Cloudy
3:56 PM 42.1 °F 34.9 °F 32.0 °F 67% 29.42 in 10.0 mi NNE 13.8 mph 20.7 mph N/A   Mostly Cloudy
4:56 PM 41.0 °F 33.5 °F 28.9 °F 62% 29.38 in 10.0 mi NE 13.8 mph 24.2 mph N/A   Clear
5:56 PM 39.9 °F 31.1 °F 28.0 °F 63% 29.37 in 10.0 mi NE 17.3 mph 24.2 mph N/A   Scattered Clouds
6:56 PM 39.0 °F 31.4 °F 27.0 °F 62% 29.35 in 10.0 mi NE 12.7 mph 23.0 mph N/A   Overcast
7:56 PM 36.0 °F 24.7 °F 30.0 °F 79% 29.36 in 10.0 mi NNE 21.9 mph 27.6 mph N/A   Overcast
8:56 PM 34.0 °F 24.6 °F 32.0 °F 92% 29.38 in 5.0 mi NNE 13.8 mph - 0.01 in Snow Light Snow
9:13 PM 33.8 °F 27.0 °F 32.0 °F 93% 29.37 in 2.0 mi North 8.1 mph - 0.01 in Snow Light Snow
9:18 PM 32.0 °F 24.2 °F 32.0 °F 100% 29.37 in 1.5 mi North 9.2 mph - 0.01 in Snow Light Snow
9:31 PM 32.0 °F 22.1 °F 32.0 °F 100% 29.37 in 1.8 mi NNE 13.8 mph - 0.03 in Snow Light Snow
9:38 PM 32.0 °F 23.0 °F 32.0 °F 100% 29.36 in 2.0 mi North 11.5 mph - 0.03 in Snow Light Snow
9:49 PM 32.0 °F 23.0 °F 32.0 °F 100% 29.36 in 4.0 mi North 11.5 mph - 0.03 in Snow Light Snow
9:56 PM 32.0 °F 22.1 °F 32.0 °F 100% 29.37 in 6.0 mi NNE 13.8 mph 19.6 mph 0.03 in Snow Light Snow
10:23 PM 33.8 °F 24.3 °F 30.2 °F 87% 29.35 in 9.0 mi NNE 13.8 mph - 0.00 in Snow Light Snow
10:56 PM 33.1 °F 23.4 °F 30.9 °F 92% 29.36 in 9.0 mi NNE 13.8 mph 19.6 mph 0.00 in Snow Light Snow
11:13 PM 33.8 °F 23.5 °F 30.2 °F 87% 29.35 in 4.0 mi NNE 16.1 mph - 0.00 in Snow Light Snow
11:48 PM 32.0 °F 23.0 °F 30.2 °F 93% 29.34 in 10.0 mi NNE 11.5 mph - 0.01 in   Overcast
11:56 PM 32.0 °F 22.5 °F 30.9 °F 96% 29.34 in 8.0 mi North 12.7 mph - 0.01 in   Overcast